User: anonymous
Location: Eckley
(40.9930°N, 75.8630°W)
Time: 14:22:39
(UTC-04:00)
Language:

Cosmos 2221 Rocket - Orbit

View from above orbital plane
View from above orbital plane
View from above satellite
View from above satellite

Ground track
Ground track

The orbit data is extracted from the following two-line orbital elements,

1 22237U 92080B   14293.52637664  .00000461  00000-0  60653-4 0  4735
2 22237 082.5096 300.4888 0021306 136.7502 336.4369 14.77925954180045
Epoch (UTC): 20 October 2014 12:37:58
Eccentricity: 0.0021306
inclination: 82.5096°
perigee height: 621 km
apogee height: 651 km
right ascension of ascending node: 300.4888°
argument of perigee: 136.7502°
revolutions per day: 14.77925954
mean anomaly at epoch: 336.4369°
orbit number at epoch: 18004

The dashed part of the orbit path shows where the satellite is in the earth's shadow,  

DLR